Time,TemperatureF,DewpointF,PressureIn,WindDirection,WindDirectionDegrees,WindSpeedMPH,WindSpeedGustMPH,Humidity,HourlyPrecipIn,Conditions,Clouds,dailyrainin,SoftwareType,DateUTC
2013-01-26 00:00:00,35.1,34.6,30.31,NNE,16,8.0,8.0,98,0.00,,,0.02,Wunderground v.1.15,2013-01-26 05:00:00,
2013-01-26 00:05:00,35.0,34.5,30.32,North,5,7.0,8.0,98,0.00,,,0.02,Wunderground v.1.15,2013-01-26 05:05:00,
2013-01-26 00:10:00,35.0,34.5,30.32,NNE,15,7.0,7.0,98,0.00,,,0.02,Wunderground v.1.15,2013-01-26 05:10:00,
2013-01-26 00:14:00,35.0,34.5,30.32,North,5,7.0,11.0,98,0.00,,,0.02,Wunderground v.1.15,2013-01-26 05:14:00,
2013-01-26 00:19:00,34.9,34.4,30.32,North,5,7.0,14.0,98,0.00,,,0.02,Wunderground v.1.15,2013-01-26 05:19:00,
2013-01-26 00:24:00,34.9,34.4,30.32,North,5,8.0,14.0,98,0.00,,,0.02,Wunderground v.1.15,2013-01-26 05:24:00,
2013-01-26 00:29:00,34.8,34.3,30.32,North,5,7.0,7.0,98,0.00,,,0.02,Wunderground v.1.15,2013-01-26 05:29:00,
2013-01-26 00:34:00,34.7,34.2,30.32,North,360,7.0,10.0,98,0.00,,,0.02,Wunderground v.1.15,2013-01-26 05:34:00,
2013-01-26 00:39:00,34.7,34.2,30.32,North,5,7.0,7.0,98,0.00,,,0.02,Wunderground v.1.15,2013-01-26 05:39:00,
2013-01-26 00:45:00,34.6,34.1,30.32,NNE,12,8.0,8.0,98,0.00,,,0.02,Wunderground v.1.15,2013-01-26 05:45:00,
2013-01-26 00:50:00,34.5,34.0,30.32,NNE,22,9.0,9.0,98,0.00,,,0.02,Wunderground v.1.15,2013-01-26 05:50:00,
2013-01-26 00:55:00,34.4,33.9,30.32,North,360,9.0,12.0,98,0.00,,,0.02,Wunderground v.1.15,2013-01-26 05:55:00,
2013-01-26 01:00:00,34.4,33.9,30.32,NNE,13,9.0,9.0,98,0.00,,,0.00,Wunderground v.1.15,2013-01-26 06:00:00,
2013-01-26 01:05:00,34.4,33.9,30.32,North,5,9.0,11.0,98,0.00,,,0.00,Wunderground v.1.15,2013-01-26 06:05:00,
2013-01-26 01:15:00,34.4,33.9,30.32,North,5,8.0,15.0,98,0.00,,,0.00,Wunderground v.1.15,2013-01-26 06:15:00,
2013-01-26 01:20:00,34.3,33.8,30.32,North,5,8.0,8.0,98,0.00,,,0.00,Wunderground v.1.15,2013-01-26 06:20:00,
2013-01-26 01:25:00,34.2,33.7,30.32,North,355,8.0,15.0,98,0.00,,,0.00,Wunderground v.1.15,2013-01-26 06:25:00,
2013-01-26 01:35:00,34.1,33.6,30.32,NNE,14,7.0,15.0,98,0.00,,,0.00,Wunderground v.1.15,2013-01-26 06:35:00,
2013-01-26 01:44:00,33.9,33.4,30.31,NNE,13,8.0,10.0,98,0.00,,,0.00,Wunderground v.1.15,2013-01-26 06:44:00,
2013-01-26 01:49:00,33.8,33.3,30.32,North,5,8.0,8.0,98,0.00,,,0.00,Wunderground v.1.15,2013-01-26 06:49:00,
2013-01-26 01:54:00,33.7,33.2,30.32,North,360,7.0,10.0,98,0.00,,,0.00,Wunderground v.1.15,2013-01-26 06:54:00,
2013-01-26 01:59:00,33.7,33.2,30.32,North,351,7.0,21.0,98,0.00,,,0.00,Wunderground v.1.15,2013-01-26 06:59:00,
2013-01-26 02:05:00,33.7,33.2,30.32,North,360,9.0,21.0,98,0.00,,,0.00,Wunderground v.1.15,2013-01-26 07:05:00,
2013-01-26 02:14:00,33.5,33.0,30.32,NNE,13,7.0,21.0,98,0.00,,,0.00,Wunderground v.1.15,2013-01-26 07:14:00,
2013-01-26 02:19:00,33.4,32.9,30.32,NNE,16,8.0,8.0,98,0.00,,,0.00,Wunderground v.1.15,2013-01-26 07:19:00,
2013-01-26 02:24:00,33.4,32.9,30.32,North,9,8.0,21.0,98,0.00,,,0.00,Wunderground v.1.15,2013-01-26 07:24:00,
2013-01-26 02:29:00,33.3,32.8,30.32,NNW,339,7.0,21.0,98,0.00,,,0.00,Wunderground v.1.15,2013-01-26 07:29:00,
2013-01-26 02:34:00,33.2,32.7,30.32,North,5,7.0,21.0,98,0.00,,,0.00,Wunderground v.1.15,2013-01-26 07:34:00,
2013-01-26 02:39:00,33.1,32.6,30.32,NNE,12,7.0,7.0,98,0.00,,,0.00,Wunderground v.1.15,2013-01-26 07:39:00,
2013-01-26 02:44:00,33.0,32.5,30.32,North,5,7.0,11.0,98,0.00,,,0.00,Wunderground v.1.15,2013-01-26 07:44:00,
2013-01-26 02:49:00,33.0,32.5,30.32,NNE,22,8.0,8.0,98,0.00,,,0.00,Wunderground v.1.15,2013-01-26 07:49:00,
2013-01-26 02:55:00,32.9,32.4,30.32,NNE,17,7.0,21.0,98,0.00,,,0.00,Wunderground v.1.15,2013-01-26 07:55:00,
2013-01-26 03:00:00,32.9,32.4,30.32,North,5,7.0,21.0,98,0.00,,,0.00,Wunderground v.1.15,2013-01-26 08:00:00,
2013-01-26 03:09:00,32.7,32.2,30.32,North,360,10.0,16.0,98,0.00,,,0.00,Wunderground v.1.15,2013-01-26 08:09:00,
2013-01-26 03:14:00,32.6,32.1,30.33,North,5,11.0,16.0,98,0.00,,,0.00,Wunderground v.1.15,2013-01-26 08:14:00,
2013-01-26 03:19:00,32.6,32.1,30.32,North,10,11.0,11.0,98,0.00,,,0.00,Wunderground v.1.15,2013-01-26 08:19:00,
2013-01-26 03:24:00,32.5,32.0,30.32,North,355,11.0,12.0,98,0.00,,,0.00,Wunderground v.1.15,2013-01-26 08:24:00,
2013-01-26 03:29:00,32.4,31.9,30.32,North,355,11.0,18.0,98,0.00,,,0.00,Wunderground v.1.15,2013-01-26 08:29:00,
2013-01-26 03:35:00,32.3,31.8,30.32,North,360,11.0,18.0,98,0.00,,,0.00,Wunderground v.1.15,2013-01-26 08:35:00,
2013-01-26 03:44:00,32.1,31.6,30.32,North,5,12.0,16.0,98,0.00,,,0.00,Wunderground v.1.15,2013-01-26 08:44:00,
2013-01-26 03:49:00,32.0,31.5,30.32,North,355,13.0,16.0,98,0.00,,,0.00,Wunderground v.1.15,2013-01-26 08:49:00,
2013-01-26 03:59:00,31.7,31.2,30.32,North,360,12.0,12.0,98,0.00,,,0.00,Wunderground v.1.15,2013-01-26 08:59:00,
2013-01-26 04:05:00,31.5,31.0,30.32,North,360,12.0,13.0,98,0.00,,,0.00,Wunderground v.1.15,2013-01-26 09:05:00,
2013-01-26 04:14:00,31.2,30.7,30.32,NNW,348,13.0,20.0,98,0.00,,,0.00,Wunderground v.1.15,2013-01-26 09:14:00,
2013-01-26 04:19:00,31.1,30.6,30.32,North,360,13.0,20.0,98,0.00,,,0.00,Wunderground v.1.15,2013-01-26 09:19:00,
2013-01-26 04:24:00,31.1,30.6,30.32,North,360,14.0,20.0,98,0.00,,,0.00,Wunderground v.1.15,2013-01-26 09:24:00,
2013-01-26 04:34:00,30.8,30.3,30.32,North,360,13.0,14.0,98,0.00,,,0.00,Wunderground v.1.15,2013-01-26 09:34:00,
2013-01-26 04:44:00,30.7,30.2,30.33,NNW,345,13.0,20.0,98,0.00,,,0.00,Wunderground v.1.15,2013-01-26 09:44:00,
2013-01-26 04:49:00,30.6,30.1,30.33,North,360,13.0,20.0,98,0.00,,,0.00,Wunderground v.1.15,2013-01-26 09:49:00,
2013-01-26 04:54:00,30.6,30.1,30.32,North,360,13.0,20.0,98,0.00,,,0.00,Wunderground v.1.15,2013-01-26 09:54:00,
2013-01-26 04:59:00,30.5,30.0,30.32,North,5,13.0,20.0,98,0.00,,,0.00,Wunderground v.1.15,2013-01-26 09:59:00,
2013-01-26 05:05:00,30.4,29.9,30.32,North,5,13.0,20.0,98,0.00,,,0.00,Wunderground v.1.15,2013-01-26 10:05:00,
2013-01-26 05:14:00,30.3,29.8,30.32,North,360,13.0,25.0,98,0.00,,,0.00,Wunderground v.1.15,2013-01-26 10:14:00,
2013-01-26 05:19:00,30.2,29.7,30.32,North,5,12.0,25.0,98,0.00,,,0.00,Wunderground v.1.15,2013-01-26 10:19:00,
2013-01-26 05:24:00,30.1,29.6,30.32,North,360,12.0,25.0,98,0.00,,,0.00,Wunderground v.1.15,2013-01-26 10:24:00,
2013-01-26 05:29:00,30.0,29.5,30.33,North,355,12.0,25.0,98,0.00,,,0.00,Wunderground v.1.15,2013-01-26 10:29:00,
2013-01-26 05:39:00,29.9,29.4,30.33,NNE,22,13.0,13.0,98,0.00,,,0.00,Wunderground v.1.15,2013-01-26 10:39:00,
2013-01-26 05:45:00,29.7,29.0,30.33,North,360,14.0,14.0,97,0.00,,,0.00,Wunderground v.1.15,2013-01-26 10:45:00,
2013-01-26 05:54:00,29.6,28.9,30.33,North,5,13.0,25.0,97,0.00,,,0.00,Wunderground v.1.15,2013-01-26 10:54:00,
2013-01-26 05:59:00,29.6,28.9,30.34,North,5,12.0,25.0,97,0.00,,,0.00,Wunderground v.1.15,2013-01-26 10:59:00,
2013-01-26 06:05:00,29.4,28.7,30.34,North,5,12.0,25.0,97,0.00,,,0.00,Wunderground v.1.15,2013-01-26 11:05:00,
2013-01-26 06:15:00,29.3,28.6,30.34,North,360,12.0,22.0,97,0.00,,,0.00,Wunderground v.1.15,2013-01-26 11:15:00,
2013-01-26 06:20:00,29.2,28.5,30.34,North,5,12.0,22.0,97,0.00,,,0.00,Wunderground v.1.15,2013-01-26 11:20:00,
2013-01-26 06:29:00,29.0,28.3,30.34,North,5,14.0,14.0,97,0.00,,,0.00,Wunderground v.1.15,2013-01-26 11:29:00,
2013-01-26 06:34:00,28.9,28.2,30.35,NNW,346,13.0,18.0,97,0.00,,,0.00,Wunderground v.1.15,2013-01-26 11:34:00,
2013-01-26 06:39:00,28.8,28.1,30.35,North,5,13.0,13.0,97,0.00,,,0.00,Wunderground v.1.15,2013-01-26 11:39:00,
2013-01-26 06:49:00,28.8,28.1,30.36,North,355,11.0,22.0,97,0.00,,,0.00,Wunderground v.1.15,2013-01-26 11:49:00,
2013-01-26 06:54:00,28.7,28.0,30.35,North,5,12.0,22.0,97,0.00,,,0.00,Wunderground v.1.15,2013-01-26 11:54:00,
2013-01-26 06:59:00,28.6,27.9,30.35,NNE,30,13.0,13.0,97,0.00,,,0.00,Wunderground v.1.15,2013-01-26 11:59:00,
2013-01-26 07:05:00,28.5,27.8,30.35,North,5,12.0,13.0,97,0.00,,,0.00,Wunderground v.1.15,2013-01-26 12:05:00,
2013-01-26 07:15:00,28.4,27.4,30.36,North,355,13.0,19.0,96,0.00,,,0.00,Wunderground v.1.15,2013-01-26 12:15:00,
2013-01-26 07:25:00,28.3,27.3,30.36,North,5,13.0,22.0,96,0.00,,,0.00,Wunderground v.1.15,2013-01-26 12:25:00,
2013-01-26 07:34:00,28.3,27.3,30.36,North,5,11.0,22.0,96,0.00,,,0.00,Wunderground v.1.15,2013-01-26 12:34:00,
2013-01-26 07:39:00,28.3,27.3,30.37,NNE,14,11.0,11.0,96,0.00,,,0.00,Wunderground v.1.15,2013-01-26 12:39:00,
2013-01-26 07:44:00,28.3,27.1,30.37,North,360,11.0,14.0,95,0.00,,,0.00,Wunderground v.1.15,2013-01-26 12:44:00,
2013-01-26 07:50:00,28.3,27.1,30.37,NNE,12,11.0,11.0,95,0.00,,,0.00,Wunderground v.1.15,2013-01-26 12:50:00,
2013-01-26 07:59:00,28.3,27.1,30.37,North,355,10.0,22.0,95,0.00,,,0.00,Wunderground v.1.15,2013-01-26 12:59:00,
2013-01-26 08:05:00,28.3,27.1,30.37,North,355,10.0,22.0,95,0.00,,,0.00,Wunderground v.1.15,2013-01-26 13:05:00,
2013-01-26 08:14:00,28.4,26.9,30.36,North,5,10.0,21.0,94,0.00,,,0.00,Wunderground v.1.15,2013-01-26 13:14:00,
2013-01-26 08:19:00,28.4,27.2,30.37,NNE,13,10.0,10.0,95,0.00,,,0.00,Wunderground v.1.15,2013-01-26 13:19:00,
2013-01-26 08:24:00,28.4,26.9,30.36,NNE,13,10.0,21.0,94,0.00,,,0.00,Wunderground v.1.15,2013-01-26 13:24:00,
2013-01-26 08:29:00,28.3,26.8,30.37,North,360,10.0,10.0,94,0.00,,,0.00,Wunderground v.1.15,2013-01-26 13:29:00,
2013-01-26 08:34:00,28.4,26.9,30.37,North,360,11.0,11.0,94,0.00,,,0.00,Wunderground v.1.15,2013-01-26 13:34:00,
2013-01-26 08:39:00,28.4,26.9,30.37,NNW,343,11.0,21.0,94,0.00,,,0.00,Wunderground v.1.15,2013-01-26 13:39:00,
2013-01-26 08:45:00,28.4,26.9,30.37,North,355,11.0,21.0,94,0.00,,,0.00,Wunderground v.1.15,2013-01-26 13:45:00,
2013-01-26 08:50:00,28.4,26.6,30.37,North,355,11.0,21.0,93,0.00,,,0.00,Wunderground v.1.15,2013-01-26 13:50:00,
2013-01-26 08:59:00,28.5,26.5,30.38,North,11,11.0,21.0,92,0.00,,,0.00,Wunderground v.1.15,2013-01-26 13:59:00,
2013-01-26 09:05:00,28.6,26.6,30.39,North,5,11.0,21.0,92,0.00,,,0.00,Wunderground v.1.15,2013-01-26 14:05:00,
2013-01-26 09:14:00,28.7,26.1,30.39,NNE,12,10.0,12.0,90,0.00,,,0.00,Wunderground v.1.15,2013-01-26 14:14:00,
2013-01-26 09:20:00,28.7,26.1,30.39,North,360,11.0,11.0,90,0.00,,,0.00,Wunderground v.1.15,2013-01-26 14:20:00,
2013-01-26 09:25:00,28.8,26.2,30.39,North,11,10.0,20.0,90,0.00,,,0.00,Wunderground v.1.15,2013-01-26 14:25:00,
2013-01-26 09:30:00,28.8,26.2,30.39,North,5,9.0,9.0,90,0.00,,,0.00,Wunderground v.1.15,2013-01-26 14:30:00,
2013-01-26 09:39:00,28.8,25.7,30.40,North,355,10.0,20.0,88,0.00,,,0.00,Wunderground v.1.15,2013-01-26 14:39:00,
2013-01-26 09:44:00,28.8,25.4,30.40,North,5,10.0,20.0,87,0.00,,,0.00,Wunderground v.1.15,2013-01-26 14:44:00,
2013-01-26 09:49:00,28.8,25.7,30.40,North,360,11.0,20.0,88,0.00,,,0.00,Wunderground v.1.15,2013-01-26 14:49:00,
2013-01-26 09:55:00,28.8,25.7,30.41,North,5,10.0,20.0,88,0.00,,,0.00,Wunderground v.1.15,2013-01-26 14:55:00,
2013-01-26 10:00:00,28.8,25.7,30.41,North,360,10.0,20.0,88,0.00,,,0.00,Wunderground v.1.15,2013-01-26 15:00:00,
2013-01-26 10:05:00,28.9,25.5,30.41,North,5,9.0,20.0,87,0.00,,,0.00,Wunderground v.1.15,2013-01-26 15:05:00,
2013-01-26 10:14:00,29.3,25.4,30.41,North,5,8.0,9.0,85,0.00,,,0.00,Wunderground v.1.15,2013-01-26 15:14:00,
2013-01-26 10:24:00,29.8,25.3,30.42,North,10,8.0,18.0,83,0.00,,,0.00,Wunderground v.1.15,2013-01-26 15:24:00,
2013-01-26 10:29:00,30.1,25.6,30.42,North,355,7.0,18.0,83,0.00,,,0.00,Wunderground v.1.15,2013-01-26 15:29:00,
2013-01-26 10:34:00,30.6,25.8,30.42,North,5,7.0,18.0,82,0.00,,,0.00,Wunderground v.1.15,2013-01-26 15:34:00,
2013-01-26 10:39:00,31.0,25.9,30.42,North,9,6.0,6.0,81,0.00,,,0.00,Wunderground v.1.15,2013-01-26 15:39:00,
2013-01-26 10:49:00,31.1,25.7,30.42,North,5,7.0,18.0,80,0.00,,,0.00,Wunderground v.1.15,2013-01-26 15:49:00,
2013-01-26 10:54:00,31.3,25.5,30.42,NNE,20,8.0,18.0,79,0.00,,,0.00,Wunderground v.1.15,2013-01-26 15:54:00,
2013-01-26 10:59:00,31.5,25.7,30.42,NNE,13,7.0,7.0,79,0.00,,,0.00,Wunderground v.1.15,2013-01-26 15:59:00,
2013-01-26 11:05:00,31.9,25.8,30.43,North,5,6.0,7.0,78,0.00,,,0.00,Wunderground v.1.15,2013-01-26 16:05:00,
2013-01-26 11:14:00,32.6,25.9,30.43,North,350,6.0,9.0,76,0.00,,,0.00,Wunderground v.1.15,2013-01-26 16:14:00,
2013-01-26 11:19:00,32.8,25.7,30.43,NNE,14,6.0,16.0,75,0.00,,,0.00,Wunderground v.1.15,2013-01-26 16:19:00,
2013-01-26 11:24:00,33.0,25.6,30.43,North,5,7.0,16.0,74,0.00,,,0.00,Wunderground v.1.15,2013-01-26 16:24:00,
2013-01-26 11:29:00,33.0,25.3,30.43,North,9,7.0,16.0,73,0.00,,,0.00,Wunderground v.1.15,2013-01-26 16:29:00,
2013-01-26 11:34:00,33.2,25.8,30.43,NNE,13,7.0,16.0,74,0.00,,,0.00,Wunderground v.1.15,2013-01-26 16:34:00,
2013-01-26 11:39:00,33.8,26.1,30.43,North,5,7.0,7.0,73,0.00,,,0.00,Wunderground v.1.15,2013-01-26 16:39:00,
2013-01-26 11:45:00,34.1,25.7,30.43,North,360,7.0,9.0,71,0.00,,,0.00,Wunderground v.1.15,2013-01-26 16:45:00,
2013-01-26 11:54:00,34.4,26.0,30.42,North,360,7.0,16.0,71,0.00,,,0.00,Wunderground v.1.15,2013-01-26 16:54:00,
2013-01-26 11:59:00,34.4,25.3,30.42,North,355,8.0,16.0,69,0.00,,,0.00,Wunderground v.1.15,2013-01-26 16:59:00,
2013-01-26 12:05:00,34.4,24.9,30.42,North,355,8.0,16.0,68,0.00,,,0.00,Wunderground v.1.15,2013-01-26 17:05:00,
2013-01-26 12:14:00,35.5,26.0,30.41,NNW,348,9.0,18.0,68,0.00,,,0.00,Wunderground v.1.15,2013-01-26 17:14:00,
2013-01-26 12:20:00,36.7,26.0,30.41,North,355,9.0,16.0,65,0.00,,,0.00,Wunderground v.1.15,2013-01-26 17:20:00,
2013-01-26 12:25:00,38.1,27.0,30.41,North,355,11.0,16.0,64,0.00,,,0.00,Wunderground v.1.15,2013-01-26 17:25:00,
2013-01-26 12:34:00,38.3,25.6,30.41,North,355,11.0,14.0,60,0.00,,,0.00,Wunderground v.1.15,2013-01-26 17:34:00,
2013-01-26 12:39:00,38.0,24.9,30.41,North,350,12.0,16.0,59,0.00,,,0.00,Wunderground v.1.15,2013-01-26 17:39:00,
2013-01-26 12:44:00,37.1,24.1,30.40,North,5,11.0,16.0,59,0.00,,,0.00,Wunderground v.1.15,2013-01-26 17:44:00,
2013-01-26 12:49:00,36.4,24.2,30.40,North,351,10.0,16.0,61,0.00,,,0.00,Wunderground v.1.15,2013-01-26 17:49:00,
2013-01-26 12:54:00,35.9,23.7,30.40,NNW,346,9.0,16.0,61,0.00,,,0.00,Wunderground v.1.15,2013-01-26 17:54:00,
2013-01-26 12:59:00,35.9,24.1,30.40,NNE,24,8.0,8.0,62,0.00,,,0.00,Wunderground v.1.15,2013-01-26 17:59:00,
2013-01-26 13:05:00,37.4,24.8,30.40,North,9,8.0,8.0,60,0.00,,,0.00,Wunderground v.1.15,2013-01-26 18:05:00,
2013-01-26 13:14:00,39.2,26.1,30.40,North,360,8.0,14.0,59,0.00,,,0.00,Wunderground v.1.15,2013-01-26 18:14:00,
2013-01-26 13:19:00,39.3,24.9,30.39,NNW,345,8.0,14.0,56,0.00,,,0.00,Wunderground v.1.15,2013-01-26 18:19:00,
2013-01-26 13:24:00,38.9,23.7,30.39,North,355,10.0,14.0,54,0.00,,,0.00,Wunderground v.1.15,2013-01-26 18:24:00,
2013-01-26 13:29:00,38.6,23.8,30.39,North,355,10.0,10.0,55,0.00,,,0.00,Wunderground v.1.15,2013-01-26 18:29:00,
2013-01-26 13:34:00,39.0,25.5,30.39,North,360,9.0,14.0,58,0.00,,,0.00,Wunderground v.1.15,2013-01-26 18:34:00,
2013-01-26 13:39:00,39.9,25.5,30.39,North,5,8.0,8.0,56,0.00,,,0.00,Wunderground v.1.15,2013-01-26 18:39:00,
2013-01-26 13:49:00,41.1,25.7,30.39,North,355,8.0,14.0,54,0.00,,,0.00,Wunderground v.1.15,2013-01-26 18:49:00,
2013-01-26 13:55:00,41.7,26.3,30.39,North,5,7.0,14.0,54,0.00,,,0.00,Wunderground v.1.15,2013-01-26 18:55:00,
2013-01-26 14:05:00,42.7,27.2,30.39,North,355,7.0,19.0,54,0.00,,,0.00,Wunderground v.1.15,2013-01-26 19:05:00,
2013-01-26 14:14:00,43.1,27.1,30.39,North,355,7.0,19.0,53,0.00,,,0.00,Wunderground v.1.15,2013-01-26 19:14:00,
2013-01-26 14:19:00,42.8,25.4,30.39,North,355,6.0,6.0,50,0.00,,,0.00,Wunderground v.1.15,2013-01-26 19:19:00,
2013-01-26 14:24:00,43.5,27.5,30.39,NNW,346,6.0,19.0,53,0.00,,,0.00,Wunderground v.1.15,2013-01-26 19:24:00,
2013-01-26 14:29:00,43.1,26.7,30.39,North,5,7.0,7.0,52,0.00,,,0.00,Wunderground v.1.15,2013-01-26 19:29:00,
2013-01-26 14:35:00,43.3,27.3,30.39,North,5,7.0,19.0,53,0.00,,,0.00,Wunderground v.1.15,2013-01-26 19:35:00,
2013-01-26 14:44:00,44.6,26.6,30.39,North,355,7.0,19.0,49,0.00,,,0.00,Wunderground v.1.15,2013-01-26 19:44:00,
2013-01-26 14:49:00,44.6,27.6,30.39,North,360,6.0,19.0,51,0.00,,,0.00,Wunderground v.1.15,2013-01-26 19:49:00,
2013-01-26 14:54:00,44.7,27.2,30.39,North,355,5.0,19.0,50,0.00,,,0.00,Wunderground v.1.15,2013-01-26 19:54:00,
2013-01-26 14:59:00,45.5,28.4,30.39,North,355,4.0,19.0,51,0.00,,,0.00,Wunderground v.1.15,2013-01-26 19:59:00,
2013-01-26 15:05:00,45.5,28.4,30.38,North,355,5.0,19.0,51,0.00,,,0.00,Wunderground v.1.15,2013-01-26 20:05:00,
2013-01-26 15:14:00,45.1,27.1,30.39,North,360,7.0,11.0,49,0.00,,,0.00,Wunderground v.1.15,2013-01-26 20:14:00,
2013-01-26 15:20:00,45.1,27.1,30.39,North,5,7.0,7.0,49,0.00,,,0.00,Wunderground v.1.15,2013-01-26 20:20:00,
2013-01-26 15:29:00,44.3,26.3,30.39,North,355,6.0,11.0,49,0.00,,,0.00,Wunderground v.1.15,2013-01-26 20:29:00,
2013-01-26 15:34:00,44.1,26.1,30.39,North,5,5.0,11.0,49,0.00,,,0.00,Wunderground v.1.15,2013-01-26 20:34:00,
2013-01-26 15:40:00,43.4,26.0,30.39,North,5,5.0,11.0,50,0.00,,,0.00,Wunderground v.1.15,2013-01-26 20:40:00,
2013-01-26 15:45:00,42.6,25.7,30.39,North,5,4.0,11.0,51,0.00,,,0.00,Wunderground v.1.15,2013-01-26 20:45:00,
2013-01-26 15:50:00,42.1,25.3,30.39,North,355,5.0,11.0,51,0.00,,,0.00,Wunderground v.1.15,2013-01-26 20:50:00,
2013-01-26 16:00:00,41.6,25.7,30.39,North,355,5.0,11.0,53,0.00,,,0.00,Wunderground v.1.15,2013-01-26 21:00:00,
2013-01-26 16:09:00,41.7,26.3,30.40,North,5,5.0,12.0,54,0.00,,,0.00,Wunderground v.1.15,2013-01-26 21:09:00,
2013-01-26 16:14:00,41.8,26.4,30.40,North,360,4.0,12.0,54,0.00,,,0.00,Wunderground v.1.15,2013-01-26 21:14:00,
2013-01-26 16:19:00,41.8,26.4,30.40,North,360,4.0,12.0,54,0.00,,,0.00,Wunderground v.1.15,2013-01-26 21:19:00,
2013-01-26 16:24:00,41.9,26.0,30.40,North,5,4.0,12.0,53,0.00,,,0.00,Wunderground v.1.15,2013-01-26 21:24:00,
2013-01-26 16:30:00,41.9,26.4,30.39,North,360,3.0,3.0,54,0.00,,,0.00,Wunderground v.1.15,2013-01-26 21:30:00,
2013-01-26 16:34:00,42.1,26.6,30.39,North,350,4.0,8.0,54,0.00,,,0.00,Wunderground v.1.15,2013-01-26 21:34:00,
2013-01-26 16:40:00,42.5,27.0,30.40,North,5,5.0,5.0,54,0.00,,,0.00,Wunderground v.1.15,2013-01-26 21:40:00,
2013-01-26 16:49:00,43.4,27.4,30.40,North,360,4.0,12.0,53,0.00,,,0.00,Wunderground v.1.15,2013-01-26 21:49:00,
2013-01-26 16:54:00,43.2,27.2,30.41,North,355,5.0,12.0,53,0.00,,,0.00,Wunderground v.1.15,2013-01-26 21:54:00,
2013-01-26 16:59:00,42.7,27.2,30.41,North,9,5.0,5.0,54,0.00,,,0.00,Wunderground v.1.15,2013-01-26 21:59:00,
2013-01-26 17:05:00,42.3,26.8,30.41,North,355,5.0,7.0,54,0.00,,,0.00,Wunderground v.1.15,2013-01-26 22:05:00,
2013-01-26 17:14:00,41.4,26.4,30.41,NNE,16,4.0,15.0,55,0.00,,,0.00,Wunderground v.1.15,2013-01-26 22:14:00,
2013-01-26 17:19:00,40.8,27.2,30.41,NNW,347,2.0,15.0,58,0.00,,,0.00,Wunderground v.1.15,2013-01-26 22:19:00,
2013-01-26 17:25:00,40.4,27.2,30.41,NNE,28,3.0,15.0,59,0.00,,,0.00,Wunderground v.1.15,2013-01-26 22:25:00,
2013-01-26 17:34:00,39.8,27.4,30.41,North,5,3.0,15.0,61,0.00,,,0.00,Wunderground v.1.15,2013-01-26 22:34:00,
2013-01-26 17:39:00,39.4,27.5,30.41,NNW,342,3.0,3.0,62,0.00,,,0.00,Wunderground v.1.15,2013-01-26 22:39:00,
2013-01-26 17:49:00,38.4,27.3,30.42,North,10,4.0,4.0,64,0.00,,,0.00,Wunderground v.1.15,2013-01-26 22:49:00,
2013-01-26 17:54:00,37.9,27.2,30.42,North,5,5.0,5.0,65,0.00,,,0.00,Wunderground v.1.15,2013-01-26 22:54:00,
2013-01-26 17:59:00,37.4,27.4,30.42,North,360,5.0,15.0,67,0.00,,,0.00,Wunderground v.1.15,2013-01-26 22:59:00,
2013-01-26 18:05:00,36.9,27.3,30.42,North,11,5.0,15.0,68,0.00,,,0.00,Wunderground v.1.15,2013-01-26 23:05:00,
2013-01-26 18:14:00,36.2,27.0,30.42,North,5,5.0,6.0,69,0.00,,,0.00,Wunderground v.1.15,2013-01-26 23:14:00,
2013-01-26 18:24:00,35.7,26.9,30.43,North,360,6.0,12.0,70,0.00,,,0.00,Wunderground v.1.15,2013-01-26 23:24:00,
2013-01-26 18:34:00,35.4,26.9,30.43,North,355,6.0,7.0,71,0.00,,,0.00,Wunderground v.1.15,2013-01-26 23:34:00,
2013-01-26 18:39:00,35.3,26.8,30.43,NNE,15,6.0,6.0,71,0.00,,,0.00,Wunderground v.1.15,2013-01-26 23:39:00,
2013-01-26 18:44:00,35.1,27.0,30.43,North,360,6.0,12.0,72,0.00,,,0.00,Wunderground v.1.15,2013-01-26 23:44:00,
2013-01-26 18:54:00,34.8,26.7,30.42,North,5,4.0,12.0,72,0.00,,,0.00,Wunderground v.1.15,2013-01-26 23:54:00,
2013-01-26 18:59:00,34.7,26.6,30.43,North,360,4.0,12.0,72,0.00,,,0.00,Wunderground v.1.15,2013-01-26 23:59:00,
2013-01-26 19:05:00,34.6,26.8,30.42,North,10,4.0,12.0,73,0.00,,,0.00,Wunderground v.1.15,2013-01-27 00:05:00,
2013-01-26 19:14:00,34.4,26.6,30.43,North,351,4.0,9.0,73,0.00,,,0.00,Wunderground v.1.15,2013-01-27 00:14:00,
2013-01-26 19:19:00,34.4,26.6,30.43,North,5,4.0,4.0,73,0.00,,,0.00,Wunderground v.1.15,2013-01-27 00:19:00,
2013-01-26 19:30:00,34.4,26.6,30.44,North,9,3.0,3.0,73,0.00,,,0.00,Wunderground v.1.15,2013-01-27 00:30:00,
2013-01-26 19:39:00,34.1,26.3,30.43,North,355,4.0,10.0,73,0.00,,,0.00,Wunderground v.1.15,2013-01-27 00:39:00,
2013-01-26 19:44:00,34.0,26.6,30.44,North,350,3.0,10.0,74,0.00,,,0.00,Wunderground v.1.15,2013-01-27 00:44:00,
2013-01-26 19:49:00,33.9,26.2,30.44,North,355,3.0,10.0,73,0.00,,,0.00,Wunderground v.1.15,2013-01-27 00:49:00,
2013-01-26 19:54:00,33.9,26.2,30.44,North,355,4.0,10.0,73,0.00,,,0.00,Wunderground v.1.15,2013-01-27 00:54:00,
2013-01-26 19:59:00,33.9,26.5,30.44,North,350,4.0,10.0,74,0.00,,,0.00,Wunderground v.1.15,2013-01-27 00:59:00,
2013-01-26 20:05:00,33.9,26.5,30.44,North,360,4.0,10.0,74,0.00,,,0.00,Wunderground v.1.15,2013-01-27 01:05:00,
2013-01-26 20:15:00,33.9,26.5,30.44,North,351,3.0,9.0,74,0.00,,,0.00,Wunderground v.1.15,2013-01-27 01:15:00,
2013-01-26 20:24:00,33.7,26.3,30.44,North,355,4.0,9.0,74,0.00,,,0.00,Wunderground v.1.15,2013-01-27 01:24:00,
2013-01-26 20:29:00,33.6,26.5,30.44,North,355,4.0,4.0,75,0.00,,,0.00,Wunderground v.1.15,2013-01-27 01:29:00,
2013-01-26 20:39:00,33.5,26.4,30.44,North,355,3.0,9.0,75,0.00,,,0.00,Wunderground v.1.15,2013-01-27 01:39:00,
2013-01-26 20:49:00,33.3,26.5,30.44,North,355,4.0,4.0,76,0.00,,,0.00,Wunderground v.1.15,2013-01-27 01:49:00,
2013-01-26 20:54:00,33.2,26.8,30.45,North,5,3.0,6.0,77,0.00,,,0.00,Wunderground v.1.15,2013-01-27 01:54:00,
2013-01-26 20:59:00,33.0,26.6,30.45,North,5,3.0,9.0,77,0.00,,,0.00,Wunderground v.1.15,2013-01-27 01:59:00,
2013-01-26 21:05:00,32.8,26.7,30.45,North,5,3.0,9.0,78,0.00,,,0.00,Wunderground v.1.15,2013-01-27 02:05:00,
2013-01-26 21:14:00,32.5,26.4,30.45,North,360,5.0,7.0,78,0.00,,,0.00,Wunderground v.1.15,2013-01-27 02:14:00,
2013-01-26 21:19:00,32.4,26.3,30.46,North,360,5.0,5.0,78,0.00,,,0.00,Wunderground v.1.15,2013-01-27 02:19:00,
2013-01-26 21:24:00,32.2,25.2,30.46,North,360,4.0,7.0,75,0.00,,,0.00,Wunderground v.1.15,2013-01-27 02:24:00,
2013-01-26 21:29:00,32.1,25.1,30.45,North,5,4.0,7.0,75,0.00,,,0.00,Wunderground v.1.15,2013-01-27 02:29:00,
2013-01-26 21:39:00,32.0,25.9,30.46,North,360,5.0,5.0,78,0.00,,,0.00,Wunderground v.1.15,2013-01-27 02:39:00,
2013-01-26 21:44:00,32.0,26.2,30.47,North,360,5.0,7.0,79,0.00,,,0.00,Wunderground v.1.15,2013-01-27 02:44:00,
2013-01-26 21:49:00,32.0,26.5,30.47,North,5,4.0,7.0,80,0.00,,,0.00,Wunderground v.1.15,2013-01-27 02:49:00,
2013-01-26 21:54:00,31.9,26.7,30.47,North,360,5.0,7.0,81,0.00,,,0.00,Wunderground v.1.15,2013-01-27 02:54:00,
2013-01-26 21:59:00,31.8,26.9,30.47,NNE,13,5.0,7.0,82,0.00,,,0.00,Wunderground v.1.15,2013-01-27 02:59:00,
2013-01-26 22:05:00,31.7,26.8,30.47,NNE,15,4.0,7.0,82,0.00,,,0.00,Wunderground v.1.15,2013-01-27 03:05:00,
2013-01-26 22:14:00,31.9,27.0,30.48,North,351,5.0,9.0,82,0.00,,,0.00,Wunderground v.1.15,2013-01-27 03:14:00,
2013-01-26 22:19:00,31.9,27.3,30.48,North,5,5.0,5.0,83,0.00,,,0.00,Wunderground v.1.15,2013-01-27 03:19:00,
2013-01-26 22:24:00,31.7,27.1,30.48,North,5,5.0,7.0,83,0.00,,,0.00,Wunderground v.1.15,2013-01-27 03:24:00,
2013-01-26 22:29:00,31.5,27.2,30.49,North,355,5.0,7.0,84,0.00,,,0.00,Wunderground v.1.15,2013-01-27 03:29:00,
2013-01-26 22:34:00,31.4,27.1,30.48,North,360,4.0,7.0,84,0.00,,,0.00,Wunderground v.1.15,2013-01-27 03:34:00,
2013-01-26 22:39:00,31.3,27.0,30.48,North,360,5.0,5.0,84,0.00,,,0.00,Wunderground v.1.15,2013-01-27 03:39:00,
2013-01-26 22:44:00,31.1,27.1,30.49,North,360,5.0,7.0,85,0.00,,,0.00,Wunderground v.1.15,2013-01-27 03:44:00,
2013-01-26 22:49:00,31.0,27.3,30.49,North,355,4.0,7.0,86,0.00,,,0.00,Wunderground v.1.15,2013-01-27 03:49:00,
2013-01-26 22:55:00,30.9,28.9,30.49,North,355,3.0,7.0,92,0.00,,,0.00,Wunderground v.1.15,2013-01-27 03:55:00,
2013-01-26 23:05:00,30.7,27.3,30.49,North,5,5.0,7.0,87,0.00,,,0.00,Wunderground v.1.15,2013-01-27 04:05:00,
2013-01-26 23:14:00,30.6,27.2,30.50,North,5,6.0,8.0,87,0.00,,,0.00,Wunderground v.1.15,2013-01-27 04:14:00,
2013-01-26 23:19:00,30.6,27.5,30.50,North,360,5.0,5.0,88,0.00,,,0.00,Wunderground v.1.15,2013-01-27 04:19:00,
2013-01-26 23:24:00,30.5,27.4,30.50,North,360,5.0,7.0,88,0.00,,,0.00,Wunderground v.1.15,2013-01-27 04:24:00,
2013-01-26 23:29:00,30.5,27.4,30.50,North,360,4.0,4.0,88,0.00,,,0.00,Wunderground v.1.15,2013-01-27 04:29:00,
2013-01-26 23:34:00,30.3,27.2,30.50,North,360,1.0,7.0,88,0.00,,,0.00,Wunderground v.1.15,2013-01-27 04:34:00,
2013-01-26 23:40:00,30.0,26.9,30.50,North,360,0.0,7.0,88,0.00,,,0.00,Wunderground v.1.15,2013-01-27 04:40:00,
2013-01-26 23:49:00,29.7,26.9,30.50,North,360,0.0,7.0,89,0.00,,,0.00,Wunderground v.1.15,2013-01-27 04:49:00,
2013-01-26 23:54:00,29.6,26.8,30.50,North,360,0.0,7.0,89,0.00,,,0.00,Wunderground v.1.15,2013-01-27 04:54:00,
2013-01-26 23:59:00,29.6,26.8,30.50,North,360,0.0,7.0,89,0.00,,,0.00,Wunderground v.1.15,2013-01-27 04:59:00,